Time,TemperatureF,DewpointF,PressureIn,WindDirection,WindDirectionDegrees,WindSpeedMPH,WindSpeedGustMPH,Humidity,HourlyPrecipIn,Conditions,Clouds,dailyrainin,SoftwareType,DateUTC
2013-06-06 00:01:00,75.0,72.9,29.90,ESE,113,2.0,10.0,93,0.03,,,0.01,meteohub,2013-06-06 04:01:00,
2013-06-06 00:06:00,75.0,72.9,29.90,East,90,3.0,10.0,93,0.02,,,0.01,meteohub,2013-06-06 04:06:00,
2013-06-06 00:16:00,75.2,73.0,29.89,ESE,111,4.0,10.0,93,0.03,,,0.02,meteohub,2013-06-06 04:16:00,
2013-06-06 00:21:00,75.2,73.0,29.89,ENE,67,4.0,10.0,93,0.03,,,0.02,meteohub,2013-06-06 04:21:00,
2013-06-06 00:26:00,75.2,73.0,29.88,East,90,5.0,10.0,93,0.03,,,0.02,meteohub,2013-06-06 04:26:00,
2013-06-06 00:31:00,75.2,73.0,29.88,ESE,106,3.0,9.0,93,0.03,,,0.03,meteohub,2013-06-06 04:31:00,
2013-06-06 00:41:00,75.0,72.9,29.87,East,80,2.0,13.0,93,0.03,,,0.03,meteohub,2013-06-06 04:41:00,
2013-06-06 00:46:00,75.0,72.9,29.87,ESE,119,2.0,13.0,93,0.02,,,0.03,meteohub,2013-06-06 04:46:00,
2013-06-06 00:51:00,75.0,72.5,29.86,ENE,63,2.0,13.0,92,0.02,,,0.03,meteohub,2013-06-06 04:51:00,
2013-06-06 01:02:00,75.0,72.5,29.86,East,92,6.0,10.0,92,0.02,,,0.03,meteohub,2013-06-06 05:02:00,
2013-06-06 01:11:00,75.2,72.7,29.86,ENE,57,2.0,10.0,92,0.01,,,0.03,meteohub,2013-06-06 05:11:00,
2013-06-06 01:16:00,75.2,72.7,29.86,ESE,105,4.0,10.0,92,0.02,,,0.04,meteohub,2013-06-06 05:16:00,
2013-06-06 01:21:00,75.2,72.7,29.86,ENE,59,4.0,10.0,92,0.02,,,0.04,meteohub,2013-06-06 05:21:00,
2013-06-06 01:26:00,75.2,73.0,29.86,East,80,2.0,10.0,93,0.01,,,0.04,meteohub,2013-06-06 05:26:00,
2013-06-06 01:31:00,75.2,73.0,29.86,East,95,6.0,9.0,93,0.01,,,0.04,meteohub,2013-06-06 05:31:00,
2013-06-06 01:36:00,75.4,73.2,29.85,ENE,61,3.0,9.0,93,0.01,,,0.04,meteohub,2013-06-06 05:36:00,
2013-06-06 01:41:00,75.4,73.2,29.85,ENE,76,4.0,9.0,93,0.02,,,0.05,meteohub,2013-06-06 05:41:00,
2013-06-06 01:51:00,75.6,73.4,29.85,ENE,61,5.0,10.0,93,0.02,,,0.05,meteohub,2013-06-06 05:51:00,
2013-06-06 01:56:00,75.6,73.4,29.85,ESE,116,2.0,11.0,93,0.02,,,0.05,meteohub,2013-06-06 05:56:00,
2013-06-06 02:01:00,75.6,73.8,29.85,East,84,2.0,11.0,94,0.03,,,0.06,meteohub,2013-06-06 06:01:00,
2013-06-06 02:11:00,75.6,73.8,29.84,East,82,2.0,10.0,94,0.04,,,0.07,meteohub,2013-06-06 06:11:00,
2013-06-06 02:16:00,75.4,73.6,29.84,ENE,70,1.0,11.0,94,0.03,,,0.07,meteohub,2013-06-06 06:16:00,
2013-06-06 02:21:00,75.4,73.6,29.83,East,86,6.0,11.0,94,0.04,,,0.08,meteohub,2013-06-06 06:21:00,
2013-06-06 02:31:00,75.4,73.2,29.83,NE,56,4.0,13.0,93,0.04,,,0.08,meteohub,2013-06-06 06:31:00,
2013-06-06 02:36:00,75.2,73.0,29.83,ENE,65,3.0,13.0,93,0.04,,,0.08,meteohub,2013-06-06 06:36:00,
2013-06-06 02:46:00,75.0,72.5,29.82,East,101,8.0,13.0,92,0.03,,,0.08,meteohub,2013-06-06 06:46:00,
2013-06-06 02:51:00,74.8,72.3,29.82,SE,131,2.0,10.0,92,0.03,,,0.08,meteohub,2013-06-06 06:51:00,
2013-06-06 03:01:00,74.8,72.3,29.81,East,86,2.0,10.0,92,0.03,,,0.09,meteohub,2013-06-06 07:01:00,
2013-06-06 03:06:00,74.8,72.3,29.81,ESE,110,3.0,10.0,92,0.04,,,0.10,meteohub,2013-06-06 07:06:00,
2013-06-06 03:11:00,74.8,72.7,29.81,ESE,102,5.0,10.0,93,0.03,,,0.10,meteohub,2013-06-06 07:11:00,
2013-06-06 03:16:00,74.8,72.7,29.81,East,100,2.0,10.0,93,0.04,,,0.12,meteohub,2013-06-06 07:16:00,
2013-06-06 03:21:00,74.8,73.0,29.81,ESE,105,2.0,11.0,94,0.07,,,0.15,meteohub,2013-06-06 07:21:00,
2013-06-06 03:26:00,74.8,73.0,29.81,ENE,61,3.0,11.0,94,0.09,,,0.17,meteohub,2013-06-06 07:26:00,
2013-06-06 03:31:00,74.8,73.0,29.81,ENE,74,0.0,15.0,94,0.11,,,0.19,meteohub,2013-06-06 07:31:00,
2013-06-06 03:41:00,74.8,73.2,29.81,East,101,1.0,7.0,95,0.15,,,0.23,meteohub,2013-06-06 07:41:00,
2013-06-06 03:51:00,74.7,73.2,29.80,NE,51,2.0,6.0,95,0.19,,,0.27,meteohub,2013-06-06 07:51:00,
2013-06-06 03:56:00,74.5,73.0,29.79,ENE,74,1.0,6.0,95,0.20,,,0.28,meteohub,2013-06-06 07:56:00,
2013-06-06 04:06:00,74.5,73.0,29.78,East,101,1.0,10.0,95,0.23,,,0.33,meteohub,2013-06-06 08:06:00,
2013-06-06 04:11:00,74.5,73.0,29.78,ENE,65,7.0,10.0,95,0.24,,,0.35,meteohub,2013-06-06 08:11:00,
2013-06-06 04:16:00,74.3,72.9,29.78,ENE,57,0.0,10.0,95,0.24,,,0.37,meteohub,2013-06-06 08:16:00,
2013-06-06 04:26:00,74.3,72.9,29.76,NE,42,7.0,11.0,95,0.20,,,0.38,meteohub,2013-06-06 08:26:00,
2013-06-06 04:31:00,74.3,73.0,29.77,SE,128,3.0,10.0,96,0.18,,,0.38,meteohub,2013-06-06 08:31:00,
2013-06-06 04:36:00,74.5,73.2,29.78,East,84,2.0,10.0,96,0.16,,,0.38,meteohub,2013-06-06 08:36:00,
2013-06-06 04:41:00,74.5,73.2,29.77,NNW,331,3.0,10.0,96,0.14,,,0.38,meteohub,2013-06-06 08:41:00,
2013-06-06 04:46:00,74.3,72.9,29.77,ESE,110,7.0,12.0,95,0.13,,,0.39,meteohub,2013-06-06 08:46:00,
2013-06-06 04:56:00,73.6,72.1,29.77,NNE,30,6.0,17.0,95,0.09,,,0.39,meteohub,2013-06-06 08:56:00,
2013-06-06 05:01:00,73.6,72.1,29.77,ESE,112,10.0,17.0,95,0.08,,,0.39,meteohub,2013-06-06 09:01:00,
2013-06-06 05:11:00,73.9,72.5,29.77,East,84,1.0,14.0,95,0.06,,,0.42,meteohub,2013-06-06 09:11:00,
2013-06-06 05:21:00,74.1,72.7,29.77,SE,128,3.0,10.0,95,0.10,,,0.46,meteohub,2013-06-06 09:21:00,
2013-06-06 05:31:00,74.5,73.2,29.77,East,100,2.0,10.0,96,0.14,,,0.52,meteohub,2013-06-06 09:31:00,
2013-06-06 05:36:00,74.5,73.2,29.77,East,80,6.0,8.0,96,0.19,,,0.57,meteohub,2013-06-06 09:36:00,
2013-06-06 05:41:00,74.5,73.2,29.76,East,99,3.0,10.0,96,0.35,,,0.74,meteohub,2013-06-06 09:41:00,
2013-06-06 05:46:00,74.3,73.0,29.75,ENE,71,3.0,10.0,96,0.43,,,0.82,meteohub,2013-06-06 09:46:00,
2013-06-06 05:56:00,74.3,73.0,29.75,ENE,71,2.0,11.0,96,0.47,,,0.86,meteohub,2013-06-06 09:56:00,
2013-06-06 06:06:00,74.1,72.9,29.75,East,87,9.0,11.0,96,0.51,,,0.92,meteohub,2013-06-06 10:06:00,
2013-06-06 06:11:00,74.1,72.9,29.74,NE,50,4.0,10.0,96,0.52,,,0.95,meteohub,2013-06-06 10:11:00,
2013-06-06 06:21:00,74.3,73.0,29.74,East,82,2.0,10.0,96,0.49,,,0.97,meteohub,2013-06-06 10:21:00,
2013-06-06 06:31:00,74.5,73.2,29.73,ESE,108,3.0,9.0,96,0.52,,,1.06,meteohub,2013-06-06 10:31:00,
2013-06-06 06:41:00,74.5,73.2,29.73,SE,125,2.0,11.0,96,0.31,,,1.09,meteohub,2013-06-06 10:41:00,
2013-06-06 06:46:00,74.3,73.0,29.73,East,84,6.0,11.0,96,0.35,,,1.17,meteohub,2013-06-06 10:46:00,
2013-06-06 06:51:00,74.3,73.0,29.73,SE,139,5.0,11.0,96,0.33,,,1.18,meteohub,2013-06-06 10:51:00,
2013-06-06 07:01:00,74.5,73.6,29.73,ESE,107,2.0,9.0,97,0.36,,,1.26,meteohub,2013-06-06 11:01:00,
2013-06-06 07:06:00,74.5,73.6,29.73,East,85,1.0,9.0,97,0.36,,,1.30,meteohub,2013-06-06 11:06:00,
2013-06-06 07:11:00,74.5,73.6,29.73,NE,34,3.0,9.0,97,0.48,,,1.44,meteohub,2013-06-06 11:11:00,
2013-06-06 07:16:00,74.5,73.6,29.73,ESE,118,1.0,8.0,97,0.60,,,1.56,meteohub,2013-06-06 11:16:00,
2013-06-06 07:26:00,74.3,73.4,29.73,SSE,149,2.0,8.0,97,0.63,,,1.65,meteohub,2013-06-06 11:26:00,
2013-06-06 07:31:00,74.1,72.9,29.71,NE,51,4.0,10.0,96,0.58,,,1.66,meteohub,2013-06-06 11:31:00,
2013-06-06 07:36:00,74.1,72.9,29.73,SE,126,7.0,15.0,96,0.58,,,1.66,meteohub,2013-06-06 11:36:00,
2013-06-06 07:42:00,74.1,72.9,29.74,SSE,159,3.0,20.0,96,0.55,,,1.66,meteohub,2013-06-06 11:42:00,
2013-06-06 07:51:00,73.9,72.7,29.74,ENE,78,5.0,20.0,96,0.49,,,1.67,meteohub,2013-06-06 11:51:00,
2013-06-06 08:01:00,73.9,72.7,29.74,East,82,3.0,13.0,96,0.40,,,1.67,meteohub,2013-06-06 12:01:00,
2013-06-06 08:06:00,73.9,72.7,29.73,NE,53,6.0,13.0,96,0.30,,,1.68,meteohub,2013-06-06 12:06:00,
2013-06-06 08:11:00,73.9,72.7,29.73,ENE,60,4.0,13.0,96,0.19,,,1.69,meteohub,2013-06-06 12:11:00,
2013-06-06 08:21:00,73.9,72.7,29.74,ENE,71,4.0,14.0,96,0.09,,,1.71,meteohub,2013-06-06 12:21:00,
2013-06-06 08:26:00,73.9,72.7,29.73,East,90,3.0,14.0,96,0.07,,,1.72,meteohub,2013-06-06 12:26:00,
2013-06-06 08:31:00,73.9,72.7,29.73,East,79,1.0,14.0,96,0.08,,,1.74,meteohub,2013-06-06 12:31:00,
2013-06-06 08:41:00,73.9,72.7,29.74,ESE,112,4.0,11.0,96,0.12,,,1.78,meteohub,2013-06-06 12:41:00,
2013-06-06 08:46:00,73.9,72.7,29.74,East,88,3.0,11.0,96,0.14,,,1.80,meteohub,2013-06-06 12:46:00,
2013-06-06 08:51:00,73.9,73.0,29.73,ESE,105,4.0,11.0,97,0.14,,,1.81,meteohub,2013-06-06 12:51:00,
2013-06-06 08:56:00,73.8,72.9,29.73,SE,145,3.0,16.0,97,0.23,,,1.90,meteohub,2013-06-06 12:56:00,
2013-06-06 09:01:00,73.8,72.9,29.72,SSE,153,3.0,16.0,97,0.24,,,1.92,meteohub,2013-06-06 13:01:00,
2013-06-06 09:06:00,73.8,72.9,29.72,ENE,59,4.0,16.0,97,0.28,,,1.96,meteohub,2013-06-06 13:06:00,
2013-06-06 09:16:00,73.8,72.9,29.72,ESE,123,5.0,15.0,97,0.36,,,2.06,meteohub,2013-06-06 13:16:00,
2013-06-06 09:21:00,73.8,72.9,29.70,East,86,6.0,15.0,97,0.38,,,2.10,meteohub,2013-06-06 13:21:00,
2013-06-06 09:26:00,73.8,72.9,29.71,East,80,5.0,14.0,97,0.46,,,2.19,meteohub,2013-06-06 13:26:00,
2013-06-06 09:36:00,74.1,73.2,29.72,ESE,112,4.0,15.0,97,0.44,,,2.22,meteohub,2013-06-06 13:36:00,
2013-06-06 09:41:00,74.1,73.2,29.71,ENE,77,4.0,15.0,97,0.45,,,2.24,meteohub,2013-06-06 13:41:00,
2013-06-06 09:51:00,74.3,73.4,29.73,East,100,5.0,15.0,97,0.41,,,2.26,meteohub,2013-06-06 13:51:00,
2013-06-06 10:01:00,74.5,73.6,29.72,SE,136,2.0,15.0,97,0.35,,,2.29,meteohub,2013-06-06 14:01:00,
2013-06-06 10:11:00,74.7,73.8,29.72,East,98,7.0,12.0,97,0.30,,,2.34,meteohub,2013-06-06 14:11:00,
2013-06-06 10:16:00,74.7,73.8,29.71,East,101,2.0,17.0,97,0.30,,,2.37,meteohub,2013-06-06 14:16:00,
2013-06-06 10:21:00,74.7,73.8,29.71,SE,144,4.0,17.0,97,0.26,,,2.40,meteohub,2013-06-06 14:21:00,
2013-06-06 10:31:00,74.8,73.9,29.72,SE,131,6.0,17.0,97,0.21,,,2.42,meteohub,2013-06-06 14:31:00,
2013-06-06 10:36:00,75.0,74.1,29.72,SSE,154,5.0,18.0,97,0.22,,,2.44,meteohub,2013-06-06 14:36:00,
2013-06-06 10:42:00,75.0,74.1,29.70,ESE,114,2.0,18.0,97,0.20,,,2.44,meteohub,2013-06-06 14:42:00,
2013-06-06 10:51:00,75.4,74.1,29.70,SSE,148,6.0,20.0,96,0.24,,,2.50,meteohub,2013-06-06 14:51:00,
2013-06-06 11:01:00,75.6,74.3,29.70,ESE,111,3.0,20.0,96,0.25,,,2.55,meteohub,2013-06-06 15:01:00,
2013-06-06 11:11:00,75.7,74.8,29.71,SSE,167,17.0,17.0,97,0.35,,,2.71,meteohub,2013-06-06 15:11:00,
2013-06-06 11:16:00,75.2,73.9,29.70,ESE,110,10.0,19.0,96,0.34,,,2.72,meteohub,2013-06-06 15:16:00,
2013-06-06 11:26:00,74.5,73.2,29.69,SE,141,9.0,24.0,96,0.31,,,2.73,meteohub,2013-06-06 15:26:00,
2013-06-06 11:31:00,74.8,73.6,29.69,ESE,111,8.0,24.0,96,0.30,,,2.73,meteohub,2013-06-06 15:31:00,
2013-06-06 11:36:00,75.4,74.1,29.70,ESE,119,11.0,19.0,96,0.29,,,2.73,meteohub,2013-06-06 15:36:00,
2013-06-06 11:46:00,75.7,74.5,29.70,SSE,159,11.0,26.0,96,0.25,,,2.73,meteohub,2013-06-06 15:46:00,
2013-06-06 11:51:00,76.3,74.7,29.70,ESE,123,8.0,26.0,95,0.22,,,2.73,meteohub,2013-06-06 15:51:00,
2013-06-06 11:57:00,76.6,74.8,29.69,ESE,112,15.0,26.0,94,0.21,,,2.73,meteohub,2013-06-06 15:57:00,
2013-06-06 12:06:00,77.2,75.0,29.69,SE,141,2.0,26.0,93,0.04,,,2.73,meteohub,2013-06-06 16:06:00,
2013-06-06 12:16:00,78.1,75.2,29.68,East,92,8.0,23.0,91,0.01,,,2.73,meteohub,2013-06-06 16:16:00,
2013-06-06 12:21:00,78.3,74.7,29.69,SSE,155,4.0,22.0,89,0.00,,,2.73,meteohub,2013-06-06 16:21:00,
2013-06-06 12:31:00,79.0,75.2,29.68,South,186,14.0,25.0,88,0.00,,,2.73,meteohub,2013-06-06 16:31:00,
2013-06-06 12:41:00,80.1,75.2,29.69,ESE,112,15.0,24.0,85,0.00,,,2.73,meteohub,2013-06-06 16:41:00,
2013-06-06 12:46:00,80.8,75.6,29.69,ESE,111,8.0,26.0,84,0.00,,,2.73,meteohub,2013-06-06 16:46:00,
2013-06-06 12:51:00,81.1,75.9,29.69,SSE,155,12.0,26.0,84,0.00,,,2.73,meteohub,2013-06-06 16:51:00,
2013-06-06 12:57:00,81.1,75.6,29.68,SSE,151,12.0,25.0,83,0.00,,,2.73,meteohub,2013-06-06 16:57:00,
2013-06-06 13:06:00,81.0,75.0,29.69,SE,140,5.0,25.0,82,0.00,,,2.73,meteohub,2013-06-06 17:06:00,
2013-06-06 13:11:00,81.0,75.0,29.69,South,171,10.0,25.0,82,0.00,,,2.73,meteohub,2013-06-06 17:11:00,
2013-06-06 13:16:00,80.8,74.8,29.68,SE,132,8.0,22.0,82,0.00,,,2.73,meteohub,2013-06-06 17:16:00,
2013-06-06 13:21:00,80.6,74.7,29.68,SE,140,11.0,23.0,82,0.00,,,2.73,meteohub,2013-06-06 17:21:00,
2013-06-06 13:26:00,80.2,74.7,29.69,SE,138,11.0,23.0,83,0.00,,,2.73,meteohub,2013-06-06 17:26:00,
2013-06-06 13:31:00,79.5,74.7,29.69,East,88,7.0,22.0,85,0.00,,,2.73,meteohub,2013-06-06 17:31:00,
2013-06-06 13:36:00,79.5,75.0,29.68,SSE,168,6.0,22.0,86,0.00,,,2.73,meteohub,2013-06-06 17:36:00,
2013-06-06 13:46:00,80.8,75.9,29.68,South,178,7.0,21.0,85,0.00,,,2.73,meteohub,2013-06-06 17:46:00,
2013-06-06 13:51:00,81.5,75.4,29.67,SSE,150,12.0,20.0,82,0.00,,,2.73,meteohub,2013-06-06 17:51:00,
2013-06-06 13:56:00,82.8,76.6,29.67,SSE,148,8.0,21.0,82,0.00,,,2.73,meteohub,2013-06-06 17:56:00,
2013-06-06 14:01:00,83.5,76.3,29.67,South,190,14.0,21.0,79,0.00,,,2.73,meteohub,2013-06-06 18:01:00,
2013-06-06 14:06:00,82.9,75.7,29.67,SE,136,12.0,21.0,79,0.00,,,2.73,meteohub,2013-06-06 18:06:00,
2013-06-06 14:16:00,82.6,75.7,29.66,ESE,114,4.0,27.0,80,0.00,,,2.73,meteohub,2013-06-06 18:16:00,
2013-06-06 14:21:00,82.2,75.4,29.66,SE,137,20.0,27.0,80,0.00,,,2.73,meteohub,2013-06-06 18:21:00,
2013-06-06 14:26:00,82.2,76.1,29.65,SW,216,5.0,32.0,82,0.00,,,2.73,meteohub,2013-06-06 18:26:00,
2013-06-06 14:36:00,81.9,75.4,29.65,SE,136,15.0,26.0,81,0.00,,,2.73,meteohub,2013-06-06 18:36:00,
2013-06-06 14:41:00,81.9,75.4,29.65,SSE,153,16.0,27.0,81,0.00,,,2.73,meteohub,2013-06-06 18:41:00,
2013-06-06 14:51:00,81.3,75.4,29.66,SE,139,12.0,34.0,82,0.00,,,2.73,meteohub,2013-06-06 18:51:00,
2013-06-06 14:56:00,81.5,75.4,29.67,ESE,103,13.0,34.0,82,0.00,,,2.73,meteohub,2013-06-06 18:56:00,
2013-06-06 15:01:00,81.7,75.6,29.66,West,265,17.0,34.0,82,0.00,,,2.73,meteohub,2013-06-06 19:01:00,
2013-06-06 15:06:00,81.3,74.8,29.67,South,172,9.0,32.0,81,0.00,,,2.73,meteohub,2013-06-06 19:06:00,
2013-06-06 15:11:00,81.0,75.0,29.67,West,264,10.0,32.0,82,0.00,,,2.73,meteohub,2013-06-06 19:11:00,
2013-06-06 15:21:00,80.4,74.8,29.67,SSW,210,7.0,27.0,83,0.00,,,2.73,meteohub,2013-06-06 19:21:00,
2013-06-06 15:26:00,81.0,75.0,29.66,East,86,7.0,27.0,82,0.00,,,2.73,meteohub,2013-06-06 19:26:00,
2013-06-06 15:36:00,81.3,75.4,29.66,SE,132,7.0,26.0,82,0.00,,,2.73,meteohub,2013-06-06 19:36:00,
2013-06-06 15:46:00,81.3,75.4,29.65,East,80,5.0,25.0,82,0.00,,,2.73,meteohub,2013-06-06 19:46:00,
2013-06-06 15:51:00,81.0,75.0,29.66,SE,128,9.0,20.0,82,0.00,,,2.73,meteohub,2013-06-06 19:51:00,
2013-06-06 15:56:00,80.6,74.7,29.65,ESE,105,7.0,21.0,82,0.00,,,2.73,meteohub,2013-06-06 19:56:00,
2013-06-06 16:06:00,80.8,75.2,29.66,SE,142,8.0,28.0,83,0.00,,,2.73,meteohub,2013-06-06 20:06:00,
2013-06-06 16:11:00,80.8,74.8,29.66,SSW,197,14.0,28.0,82,0.00,,,2.73,meteohub,2013-06-06 20:11:00,
2013-06-06 16:21:00,82.0,75.6,29.66,SE,138,6.0,23.0,81,0.00,,,2.73,meteohub,2013-06-06 20:21:00,
2013-06-06 16:26:00,82.6,75.4,29.66,SE,128,2.0,23.0,79,0.00,,,2.73,meteohub,2013-06-06 20:26:00,
2013-06-06 16:36:00,81.9,75.0,29.66,SSW,194,2.0,18.0,80,0.00,,,2.73,meteohub,2013-06-06 20:36:00,
2013-06-06 16:41:00,81.0,74.7,29.66,SW,217,6.0,23.0,81,0.00,,,2.73,meteohub,2013-06-06 20:41:00,
2013-06-06 16:46:00,80.8,74.8,29.66,SSW,212,8.0,23.0,82,0.00,,,2.73,meteohub,2013-06-06 20:46:00,
2013-06-06 16:56:00,81.7,73.4,29.67,SSW,205,7.0,23.0,76,0.00,,,2.73,meteohub,2013-06-06 20:56:00,
2013-06-06 17:02:00,81.3,73.8,29.67,WSW,252,6.0,23.0,78,0.00,,,2.73,meteohub,2013-06-06 21:02:00,
2013-06-06 17:11:00,80.4,72.5,29.67,SSW,195,3.0,19.0,77,0.00,,,2.73,meteohub,2013-06-06 21:11:00,
2013-06-06 17:16:00,80.2,73.0,29.68,SSE,163,6.0,16.0,79,0.00,,,2.73,meteohub,2013-06-06 21:16:00,
2013-06-06 17:21:00,80.2,72.7,29.68,East,92,7.0,16.0,78,0.00,,,2.73,meteohub,2013-06-06 21:21:00,
2013-06-06 17:26:00,80.2,73.0,29.68,WNW,294,6.0,16.0,79,0.00,,,2.73,meteohub,2013-06-06 21:26:00,
2013-06-06 17:32:00,80.1,73.0,29.68,SSE,152,2.0,14.0,79,0.00,,,2.73,meteohub,2013-06-06 21:32:00,
2013-06-06 17:41:00,80.2,72.3,29.69,SSW,197,11.0,15.0,77,0.00,,,2.73,meteohub,2013-06-06 21:41:00,
2013-06-06 17:46:00,79.9,72.3,29.69,SW,220,14.0,21.0,78,0.00,,,2.73,meteohub,2013-06-06 21:46:00,
2013-06-06 17:56:00,79.7,72.1,29.69,South,176,10.0,24.0,78,0.00,,,2.73,meteohub,2013-06-06 21:56:00,
2013-06-06 18:01:00,80.1,72.5,29.69,SW,225,8.0,24.0,78,0.00,,,2.73,meteohub,2013-06-06 22:01:00,
2013-06-06 18:06:00,79.9,72.3,29.69,East,88,7.0,21.0,78,0.00,,,2.73,meteohub,2013-06-06 22:06:00,
2013-06-06 18:16:00,79.9,72.0,29.69,ESE,107,4.0,21.0,77,0.00,,,2.73,meteohub,2013-06-06 22:16:00,
2013-06-06 18:21:00,79.5,72.1,29.69,SE,131,11.0,17.0,78,0.00,,,2.73,meteohub,2013-06-06 22:21:00,
2013-06-06 18:31:00,79.5,72.1,29.70,South,188,5.0,18.0,78,0.00,,,2.73,meteohub,2013-06-06 22:31:00,
2013-06-06 18:41:00,79.3,72.7,29.70,South,188,7.0,18.0,80,0.00,,,2.73,meteohub,2013-06-06 22:41:00,
2013-06-06 18:51:00,79.0,72.3,29.70,SW,225,4.0,18.0,80,0.00,,,2.73,meteohub,2013-06-06 22:51:00,
2013-06-06 18:56:00,79.0,72.3,29.70,WSW,247,13.0,18.0,80,0.00,,,2.73,meteohub,2013-06-06 22:56:00,
2013-06-06 19:01:00,78.8,72.5,29.70,SW,218,9.0,18.0,81,0.00,,,2.73,meteohub,2013-06-06 23:01:00,
2013-06-06 19:11:00,78.4,72.1,29.70,South,175,6.0,20.0,81,0.00,,,2.73,meteohub,2013-06-06 23:11:00,
2013-06-06 19:16:00,78.4,72.5,29.71,South,190,6.0,20.0,82,0.00,,,2.73,meteohub,2013-06-06 23:16:00,
2013-06-06 19:21:00,78.6,72.7,29.70,SW,223,6.0,17.0,82,0.00,,,2.73,meteohub,2013-06-06 23:21:00,
2013-06-06 19:31:00,78.6,72.3,29.71,SSW,198,4.0,18.0,81,0.00,,,2.73,meteohub,2013-06-06 23:31:00,
2013-06-06 19:41:00,78.3,72.0,29.71,SSW,209,6.0,15.0,81,0.00,,,2.73,meteohub,2013-06-06 23:41:00,
2013-06-06 19:46:00,78.3,72.0,29.71,SSW,192,5.0,17.0,81,0.00,,,2.73,meteohub,2013-06-06 23:46:00,
2013-06-06 19:51:00,78.3,72.3,29.71,SSW,192,4.0,17.0,82,0.00,,,2.73,meteohub,2013-06-06 23:51:00,
2013-06-06 20:01:00,78.3,72.7,29.71,South,177,2.0,17.0,83,0.00,,,2.73,meteohub,2013-06-07 00:01:00,
2013-06-06 20:11:00,78.1,72.9,29.72,SW,221,3.0,12.0,84,0.00,,,2.73,meteohub,2013-06-07 00:11:00,
2013-06-06 20:16:00,77.9,72.7,29.73,South,181,4.0,15.0,84,0.00,,,2.73,meteohub,2013-06-07 00:16:00,
2013-06-06 20:26:00,77.9,72.3,29.73,WSW,258,5.0,15.0,83,0.00,,,2.73,meteohub,2013-06-07 00:26:00,
2013-06-06 20:31:00,77.9,72.3,29.73,SW,229,5.0,18.0,83,0.00,,,2.73,meteohub,2013-06-07 00:31:00,
2013-06-06 20:41:00,77.9,72.3,29.74,SW,230,4.0,18.0,83,0.00,,,2.73,meteohub,2013-06-07 00:41:00,
2013-06-06 20:51:00,77.9,72.7,29.75,SW,225,7.0,14.0,84,0.00,,,2.73,meteohub,2013-06-07 00:51:00,
2013-06-06 20:56:00,77.9,72.7,29.75,West,261,6.0,12.0,84,0.00,,,2.73,meteohub,2013-06-07 00:56:00,
2013-06-06 21:06:00,78.1,72.9,29.75,SSE,165,5.0,16.0,84,0.00,,,2.73,meteohub,2013-06-07 01:06:00,
2013-06-06 21:16:00,78.1,72.9,29.76,WSW,240,5.0,15.0,84,0.00,,,2.73,meteohub,2013-06-07 01:16:00,
2013-06-06 21:21:00,78.1,72.9,29.76,WSW,237,6.0,15.0,84,0.00,,,2.73,meteohub,2013-06-07 01:21:00,
2013-06-06 21:31:00,78.1,73.2,29.76,South,185,11.0,16.0,85,0.00,,,2.73,meteohub,2013-06-07 01:31:00,
2013-06-06 21:41:00,78.1,73.6,29.77,SSW,211,6.0,16.0,86,0.00,,,2.73,meteohub,2013-06-07 01:41:00,
2013-06-06 21:51:00,77.9,73.4,29.78,SSW,198,4.0,14.0,86,0.00,,,2.73,meteohub,2013-06-07 01:51:00,
2013-06-06 22:01:00,78.1,73.6,29.78,East,100,5.0,14.0,86,0.00,,,2.73,meteohub,2013-06-07 02:01:00,
2013-06-06 22:11:00,78.1,73.2,29.79,SW,223,6.0,18.0,85,0.00,,,2.73,meteohub,2013-06-07 02:11:00,
2013-06-06 22:16:00,78.1,72.9,29.79,SW,231,7.0,18.0,84,0.00,,,2.73,meteohub,2013-06-07 02:16:00,
2013-06-06 22:21:00,78.1,72.9,29.79,SSW,213,3.0,18.0,84,0.00,,,2.73,meteohub,2013-06-07 02:21:00,
2013-06-06 22:31:00,78.1,72.5,29.80,SW,227,5.0,13.0,83,0.00,,,2.73,meteohub,2013-06-07 02:31:00,
2013-06-06 22:41:00,78.1,72.5,29.80,South,191,6.0,17.0,83,0.00,,,2.73,meteohub,2013-06-07 02:41:00,
2013-06-06 22:51:00,77.9,72.7,29.80,NW,309,3.0,14.0,84,0.00,,,2.73,meteohub,2013-06-07 02:51:00,
2013-06-06 22:56:00,77.7,72.5,29.81,SSW,204,1.0,13.0,84,0.00,,,2.73,meteohub,2013-06-07 02:56:00,
2013-06-06 23:01:00,77.7,72.5,29.81,SW,229,7.0,12.0,84,0.00,,,2.73,meteohub,2013-06-07 03:01:00,
2013-06-06 23:06:00,77.7,72.5,29.81,SSW,197,4.0,9.0,84,0.00,,,2.73,meteohub,2013-06-07 03:06:00,
2013-06-06 23:16:00,77.7,72.1,29.81,SSW,207,3.0,12.0,83,0.00,,,2.73,meteohub,2013-06-07 03:16:00,
2013-06-06 23:21:00,77.7,71.8,29.81,SSW,207,6.0,13.0,82,0.00,,,2.73,meteohub,2013-06-07 03:21:00,
2013-06-06 23:31:00,77.7,72.1,29.81,SW,222,6.0,13.0,83,0.00,,,2.73,meteohub,2013-06-07 03:31:00,
2013-06-06 23:41:00,77.7,72.1,29.82,South,181,2.0,10.0,83,0.00,,,0.00,meteohub,2013-06-07 03:41:00,
2013-06-06 23:51:00,77.7,72.1,29.81,SSW,192,7.0,10.0,83,0.00,,,0.00,meteohub,2013-06-07 03:51:00,
2013-06-06 23:56:00,77.7,72.1,29.81,SSW,204,5.0,11.0,83,0.00,,,0.00,meteohub,2013-06-07 03:56:00,